Tracking 31030 objects as of 15-Jul-2025
HD Live streaming from Space Station
objects crossing your sky now

OPS 5798 DEB

Track OPS 5798 DEB now!
10-day predictions


NORAD ID: 903
Int'l Code: 1964-063F
Perigee: 952.2 km
Apogee: 989.1 km
Inclination: 90.2 °
Period: 104.3 minutes
Semi major axis: 7341 km
RCS: 0.0502 m2 (small)
Launch date: October 6, 1964
Source: United States (US)
Launch site: AIR FORCE WESTERN TEST RANGE (AFWTR)

Note: This is SATELLITE DEBRIS
Your satellite tracking list
Your tracking list is empty




NASA's NSSDC Master Catalog

Two Line Element Set (TLE):
1 00903U 64063F   25195.39497740  .00000522  00000-0  49183-3 0  9993
2 00903  90.2165  63.2012 0025124  57.0040 116.7532 13.80116626 27762
Source of the keplerian elements: AFSPC